Time,TemperatureF,DewpointF,PressureIn,WindDirection,WindDirectionDegrees,WindSpeedMPH,WindSpeedGustMPH,Humidity,HourlyPrecipIn,Conditions,Clouds,dailyrainin,SoftwareType,DateUTC
2013-08-21 00:23:00,72.0,71.0,-100.00,North,355,0.0,0.0,99,-99.99,,,-99.99,,2013-08-21 05:23:00,
2013-08-21 00:34:00,72.0,71.0,-100.00,North,355,0.0,0.0,99,-99.99,,,-99.99,,2013-08-21 05:34:00,
2013-08-21 00:43:00,72.0,71.0,-100.00,North,355,0.0,0.0,99,-99.99,,,-99.99,,2013-08-21 05:43:00,
2013-08-21 00:52:00,72.0,71.0,-100.00,North,355,0.0,0.0,99,-99.99,,,-99.99,,2013-08-21 05:52:00,
2013-08-21 03:22:00,68.0,68.0,-100.00,North,355,0.0,0.0,99,-99.99,,,-99.99,,2013-08-21 08:22:00,
2013-08-21 03:32:00,68.0,68.0,-100.00,North,355,0.0,0.0,99,-99.99,,,-99.99,,2013-08-21 08:32:00,
2013-08-21 03:43:00,68.0,68.0,-100.00,North,355,0.0,0.0,99,-99.99,,,-99.99,,2013-08-21 08:43:00,
2013-08-21 03:52:00,68.0,68.0,-100.00,North,355,0.0,0.0,99,-99.99,,,-99.99,,2013-08-21 08:52:00,
2013-08-21 04:22:00,69.0,69.0,-100.00,North,355,0.0,0.0,99,-99.99,,,-99.99,,2013-08-21 09:22:00,
2013-08-21 04:33:00,69.0,69.0,-100.00,North,355,0.0,0.0,99,-99.99,,,-99.99,,2013-08-21 09:33:00,
2013-08-21 04:43:00,69.0,69.0,-100.00,North,355,0.0,0.0,99,-99.99,,,-99.99,,2013-08-21 09:43:00,
2013-08-21 04:53:00,69.0,69.0,-100.00,North,355,0.0,0.0,99,-99.99,,,-99.99,,2013-08-21 09:53:00,
2013-08-21 05:23:00,69.0,69.0,-100.00,North,355,0.0,0.0,99,-99.99,,,-99.99,,2013-08-21 10:23:00,
2013-08-21 05:33:00,69.0,69.0,-100.00,North,355,0.0,0.0,99,-99.99,,,-99.99,,2013-08-21 10:33:00,
2013-08-21 05:43:00,69.0,69.0,-100.00,North,355,0.0,0.0,99,-99.99,,,-99.99,,2013-08-21 10:43:00,
2013-08-21 05:52:00,69.0,69.0,-100.00,North,355,0.0,0.0,99,-99.99,,,-99.99,,2013-08-21 10:52:00,
2013-08-21 06:22:00,71.0,70.0,-100.00,North,355,0.0,0.0,99,-99.99,,,-99.99,,2013-08-21 11:22:00,
2013-08-21 06:33:00,71.0,70.0,-100.00,North,355,0.0,0.0,99,-99.99,,,-99.99,,2013-08-21 11:33:00,
2013-08-21 06:42:00,71.0,70.0,-100.00,North,355,0.0,0.0,99,-99.99,,,-99.99,,2013-08-21 11:42:00,
2013-08-21 06:52:00,71.0,70.0,-100.00,North,355,0.0,0.0,99,-99.99,,,-99.99,,2013-08-21 11:52:00,
2013-08-21 13:22:00,87.0,76.0,-100.00,North,355,0.0,0.0,68,-99.99,,,-99.99,,2013-08-21 18:22:00,
2013-08-21 13:32:00,87.0,76.0,-100.00,North,355,0.0,0.0,68,-99.99,,,-99.99,,2013-08-21 18:32:00,
2013-08-21 13:52:00,87.0,76.0,-100.00,North,355,0.0,0.0,68,-99.99,,,-99.99,,2013-08-21 18:52:00,
2013-08-21 14:22:00,87.0,74.0,-100.00,North,355,0.0,0.0,64,-99.99,,,-99.99,,2013-08-21 19:22:00,
2013-08-21 14:32:00,87.0,74.0,-100.00,North,355,0.0,0.0,64,-99.99,,,-99.99,,2013-08-21 19:32:00,
2013-08-21 14:42:00,87.0,74.0,-100.00,North,355,0.0,0.0,64,-99.99,,,-99.99,,2013-08-21 19:42:00,
2013-08-21 14:52:00,87.0,74.0,-100.00,North,355,0.0,0.0,64,-99.99,,,-99.99,,2013-08-21 19:52:00,
2013-08-21 15:32:00,89.0,73.0,-100.00,North,355,0.0,0.0,59,-99.99,,,-99.99,,2013-08-21 20:32:00,
2013-08-21 16:21:00,89.0,73.0,-100.00,North,355,0.0,0.0,59,-99.99,,,-99.99,,2013-08-21 21:21:00,
2013-08-21 17:24:00,89.0,73.0,-100.00,North,355,0.0,0.0,60,-99.99,,,-99.99,,2013-08-21 22:24:00,
2013-08-21 17:34:00,89.0,73.0,-100.00,North,355,0.0,0.0,60,-99.99,,,-99.99,,2013-08-21 22:34:00,
2013-08-21 17:43:00,89.0,73.0,-100.00,North,355,0.0,0.0,60,-99.99,,,-99.99,,2013-08-21 22:43:00,
2013-08-21 17:53:00,89.0,73.0,-100.00,North,355,0.0,0.0,60,-99.99,,,-99.99,,2013-08-21 22:53:00,
2013-08-21 18:22:00,87.0,74.0,-100.00,North,355,0.0,0.0,66,-99.99,,,-99.99,,2013-08-21 23:22:00,
2013-08-21 18:34:00,87.0,74.0,-100.00,North,355,0.0,0.0,66,-99.99,,,-99.99,,2013-08-21 23:34:00,
2013-08-21 18:43:00,87.0,74.0,-100.00,North,355,0.0,0.0,66,-99.99,,,-99.99,,2013-08-21 23:43:00,
2013-08-21 18:53:00,87.0,74.0,-100.00,North,355,0.0,0.0,66,-99.99,,,-99.99,,2013-08-21 23:53:00,